Preview of NWS' New Version of Forecast
This preview is not operational and should not be used for support decisions.
Latest weather observations around

Lake Charles, Lake Charles Regional Airport (KLCH)

Using English Units (Switch to International System of Units)
Date/ Time (CDT) Wind (mph) Vis. (mi) Weather Sky Cond. Temp (°F) Rel. Humidity Wind Chill (°F) Heat Index (°F) Pressure Precip. (in)
Air Dwpt 6 hour Altimeter (inHg) Sea level (inHg) 1 hr 3 hr 6 hr
Max Min
Sep 18 08:53 SE 10 9 Mostly Cloudy SCT026 SCT034 BKN050 82 79     90%   92 29.93 29.95      
Sep 18 08:36 SE 13 9 Mostly Cloudy FEW015 SCT026 BKN047 82 79     90%   92 29.92        
Sep 18 08:22 SE 11 9 Mostly Cloudy SCT017 BKN028 BKN043 82 79     90%   92 29.93        
Sep 18 08:05 ESE 10 8 Mostly Cloudy SCT022 BKN032 BKN050 82 79     90%   92 29.92        
Sep 18 07:53 ESE 10 6 Fog/Mist SCT022 BKN029 82 79     90%   92 29.91 29.93 0    
Sep 18 07:17 SSE 9 6 Fog/Mist SCT013 SCT028 BKN045 81 78     91%   89 29.91   0    
Sep 18 07:03 S 5 1.25 Heavy Rain and Fog/Mist FEW007 SCT015 BKN031 81 79     94%   89 29.92   0    
Sep 18 06:53 ESE 8 10 Mostly Cloudy FEW021 SCT031 BKN055 81 79     94%   89 29.91 29.93      
Sep 18 05:53 ESE 8 10 Partly Cloudy FEW023 FEW029 SCT034 81 78     91%   89 29.9 29.92      
Sep 18 04:53 SE 9 10 Clear CLR 80 78     94%   86 29.89 29.91      
Sep 18 03:53 ESE 10 10 Clear CLR 80 78     94%   86 29.88 29.91      
Sep 18 03:24 SE 9 10 Mostly Clear FEW006 80 77     90%   86 29.89        
Sep 18 02:53 ESE 7 10 Clear CLR 79 77     94%   83 29.9 29.92      
Sep 18 01:53 ESE 8 10 Clear CLR 80 77     90%   86 29.92 29.93      
Sep 18 00:53 SE 9 10 Clear CLR 79 77     94%   83 29.92 29.94      
Sep 17 23:53 ESE 7 10 Clear CLR 79 76     90%   83 29.93 29.95      
Sep 17 22:53 ESE 7 10 Clear CLR 78 76     93%   80 29.94 29.96      
Sep 17 21:53 ESE 9 10 Clear   78 75     90%   80 29.94 29.96      
Sep 17 20:53 E 9 10 Clear CLR 78 75     90%   80 29.95 29.97      
Sep 17 19:53 ESE 10 10 Mostly Cloudy FEW085 BKN110 78 75     90%   80 29.94 29.96      
Sep 17 18:53 E 9 10 Partly Cloudy FEW048 SCT110 79 75     88%   83 29.93 29.95     0
Sep 17 17:53 E 8 10 Clear CLR 79 74     85%   83 29.93 29.95 0    
Sep 17 16:53 SSE 10 10 Light Rain FEW042 SCT055 79 74     85%   83 29.93 29.96 0    
Sep 17 15:53 SSE 10 10 Mostly Clear FEW027 79 74     85%   83 29.95 29.97 0 0  
Sep 17 15:01 SSE 10 6 Light Rain and Fog/Mist SCT033 BKN080 OVC110 78 75     90%   80 29.96   0    
Sep 17 14:53 SSE 9 2 Light Rain and Fog/Mist SCT030 BKN042 OVC100 78 75     90%   80 29.96 29.98 0    
Sep 17 14:46 SSE 13 4 Light Rain FEW012 BKN030 OVC100 79 74     85%   83 29.97   0    
Sep 17 13:53 S 7 10 Mostly Cloudy FEW039 BKN085 85 75     72%   93 29.96 29.98      
Sep 17 12:53 SSE 9 10 Partly Cloudy FEW050 SCT110 83 76     79%   91 29.98 30 0   1
Sep 17 12:23 SSW 7 6 Light Rain and Fog/Mist SCT026 SCT044 BKN070 79 76     90%   83 29.99   0    
Sep 17 12:16 SSW 7 2.5 Light Rain and Fog/Mist FEW014 BKN033 OVC090 78 75     90%   80 29.99   0    
Sep 17 12:09 7 0.75 Heavy Rain and Fog/Mist SCT025 BKN037 OVC065 77 74     90%   79 29.99   0    
Sep 17 11:53 S 9 1.25 Rain and Fog/Mist FEW029 BKN038 OVC100 77 74     90%   79 30.01 30.03 0    
Sep 17 11:47 SSW 11 1.5 Heavy Rain and Fog/Mist FEW029 BKN038 BKN050 77 73     89%   79 30   0    
Sep 17 11:43 SW 13 6 Rain and Fog/Mist FEW019 SCT036 BKN048 77 73     88%   79 29.99   0    
Sep 17 11:35 SSW 8 2 Heavy Rain and Fog/Mist FEW022 BKN037 OVC050 76 73     91%   77 29.99   0    
Sep 17 11:25 SSW 8 10 Cloudy FEW025 BKN035 OVC048 79 74     85%   83 30        
Sep 17 11:11 SW 7 10 Cloudy SCT016 BKN025 OVC034 79 74     85%   83 30        
Sep 17 10:53 SSW 10 10 Cloudy BKN016 OVC020 79 73     82%   82 30 30.02      
Sep 17 10:43 SSW 6 10 Cloudy BKN013 OVC018 79 74     85%   83 30        
Sep 17 10:33 SE 8 10 Mostly Cloudy BKN015 85 78     80%   97 29.99        
Sep 17 10:05 ESE 11 10 Mostly Cloudy BKN011 85 78     80%   97 29.99        
Sep 17 09:53 E 9 10 Mostly Cloudy BKN009 BKN014 84 79     85%   96 29.99 30.01      
Sep 17 09:13 E 11 10 Mostly Cloudy BKN008 BKN090 83 78     85%   93 29.98        
Sep 17 08:53 E 9 10 Mostly Cloudy SCT006 BKN080 83 78     85%   93 29.98 30      
Sep 17 08:43 E 9 10 Mostly Cloudy SCT005 BKN080 83 78     85%   93 29.98        
Sep 17 08:14 E 8 9 Cloudy OVC005 80 77     90%   86 29.97        
Sep 17 07:53 E 9 7 Cloudy OVC004 79 77     94%   83 29.97 29.99      
Sep 17 06:53 E 10 6 Fog/Mist OVC003 78 76     93%   80 29.95 29.97      
Sep 17 05:53 E 9 9 Cloudy OVC004 77 75     94%   79 29.94 29.96      
Sep 17 05:41 E 8 10 Cloudy OVC004 77 75     94%   79 29.94        
Sep 17 04:53 ENE 6 10 Cloudy OVC006 77 75     94%   79 29.93 29.95      
Sep 17 04:27 E 7 10 Mostly Cloudy BKN005 77 75     94%   79 29.92        
Sep 17 04:04 E 6 10 Mostly Clear FEW004 77 75     94%   79 29.92        
Sep 17 03:53 E 7 10 Clear CLR 77 75     94%   79 29.92 29.94      
Sep 17 02:53 E 7 10 Clear CLR 77 74     90%   79 29.93 29.95      
Sep 17 01:53 E 7 10 Clear CLR 77 75     94%   79 29.94 29.96      
Sep 17 00:53 E 7 10 Mostly Clear FEW100 78 75     90%   80 29.95 29.97      
Sep 16 23:53 E 6 10 Clear CLR 78 75     90%   80 29.96 29.98      
Sep 16 22:53 E 5 10 Clear CLR 78 74     87%   80 29.96 29.98      
Sep 16 21:53 E 7 10 Clear CLR 79 74     85%   83 29.96 29.98      
Sep 16 20:53 E 8 10 Clear CLR 80 75     85%   85 29.95 29.97      
Sep 16 19:53 E 8 10 Mostly Clear FEW025 81 75     82%   87 29.95 29.97      
Sep 16 19:45 E 8 10 Mostly Clear FEW025 81 75     82%   87 29.94        
Sep 16 19:15 E 7 10 Mostly Cloudy BKN021 BKN025 82 75     79%   89 29.95        
Sep 16 18:53 ESE 9 10 Mostly Clear FEW021 83 74     74%   89 29.94 29.96     0
Sep 16 17:53 ESE 11 10 Clear CLR 85 74     70%   92 29.94 29.96      
Sep 16 16:53 E 14 10 Mostly Cloudy BKN015 BKN023 BKN029 83 75     77%   90 29.95 29.97      
Sep 16 16:24 ENE 11 10 Mostly Cloudy BKN017 BKN022 83 75     77%   90 29.95        
Sep 16 15:53 E 11 10 Mostly Clear FEW014 83 75     77%   90 29.96 29.98   0  
Sep 16 14:53 ESE 11 10 Mostly Cloudy FEW080 BKN095 BKN110 79 75     88%   83 29.97 29.99 0    
Sep 16 13:53 SE 20 10 Mostly Cloudy and Windy SCT030 BKN040 BKN048 80 72     76%   84 30.01 30.03 0    
Sep 16 12:53 E 15 10 Mostly Cloudy SCT046 BKN065 BKN090 90 72     56%   97 29.99 30.01      
Sep 16 11:53 E 15 10 Partly Cloudy FEW042 SCT080 92 72     52%   100 30 30.02      
Sep 16 10:53 ENE 13 10 Mostly Clear FEW050 90 71     54%   96 30.01 30.03      
Sep 16 09:53 ENE 10 10 Clear CLR 87 72     61%   94 30.01 30.03      
Sep 16 08:53 NE 11 10 Clear CLR 83 72     70%   88 30 30.02      
Sep 16 07:53 NE 9 10 Clear CLR 79 73     82%   82 30 30.02      
Sep 16 06:53 NE 6 10 Clear CLR 76 72     88%   77 29.98 30.01      
Sep 16 05:53 NNE 6 10 Clear CLR 77 73     88%   79 29.97 30      
Sep 16 04:53 NNE 6 10 Clear CLR 78 73     85%   80 29.98 30      
Sep 16 03:53 N 5 10 Clear CLR 78 74     87%   80 29.98 30      
Sep 16 02:53 NNE 3 10 Clear CLR 76 72     88%   77 29.98 30.01      
Sep 16 01:53 NE 3 10 Clear CLR 78 73     85%   80 29.99 30.01      
Sep 16 00:53 Calm 10 Clear CLR 79 74     85%   83 30 30.02      
Sep 15 23:53 SE 3 10 Clear CLR 79 73     82%   82 30 30.02      
Sep 15 22:53 Calm 10 Clear CLR 80 71     74%   84 30 30.02      
Sep 15 21:53 Calm 10 Mostly Clear FEW065 80 71     74%   84 29.99 30.01      
Sep 15 20:53 Calm 10 Mostly Clear FEW070 82 70     67%   86 29.98 30      
Sep 15 19:53 SE 9 10 Mostly Cloudy BKN080 86 70     59%   91 29.96 29.98      
Sep 15 18:53 ENE 7 10 Clear CLR 90 69     50%   95 29.95 29.97      
Sep 15 17:53 E 11 10 Clear CLR 94 68     43%   99 29.95 29.97      
Sep 15 16:53 ENE 15 10 Mostly Clear FEW065 96 66     38%   100 29.95 29.97      
Sep 15 15:53 ENE 13 10 Mostly Cloudy BKN065 94 67     41%   98 29.95 29.97      
Sep 15 14:53 ENE 13 10 Mostly Cloudy FEW060 BKN080 96 70     43%   103 29.96 29.98      
Sep 15 13:53 NE 16 10 Mostly Clear FEW055 95 71     46%   103 29.99 30.01      
Sep 15 12:53 NE 13 10 Mostly Cloudy SCT050 BKN055 94 71     48%   101 30.01 30.03      
Sep 15 11:53 E 11 10 Clear CLR 93 71     49%   100 30.03 30.05      
Notice The following observation data may not be complete
May 14 06:06 Calm 1 Fog/Mist VV004          %     30        
Notice The following observation data may not be complete
May 14 05:44 Calm 3 Fog/Mist OVC003          %     30        
May 13 23:53 SSE 3 10 Clear CLR 73 72     96%   75 30.02 30.04      
May 11 18:53 S 10 10 Mostly Clear FEW031 81 67     62%   83 29.98 30      
Jun 11 15:19 SSE 13 10 Partly Cloudy FEW027 SCT033 89 75     63%   99 29.93        
Jun 10 18:53 SSE 11 10 Mostly Clear FEW032 83 70     65%   87 29.92 29.94      
Jun 08 13:53 NE 11 10 Clear CLR 87 57     36%   86 29.93 29.95      
Jun 08 10:53 ENE 8 10 Clear CLR 82 60     47%   82 29.98 30      
Jun 07 20:37 NNE 8 10 Mostly Clear FEW002 79 62     56%   79 29.87        
Jun 07 10:53 N 13 10 Clear CLR 83 69     63%   87 29.86 29.88      
Jun 06 15:02 NE 13 10 Mostly Cloudy FEW035 SCT047 BKN090 81 71     72%   85 29.7        
Jun 06 09:53 N 10 10 Mostly Cloudy BKN014 80 72     76%   84 29.75 29.77      
Jun 05 17:53 Calm 10 Mostly Clear FEW013 75 70     84%   76 29.69 29.71